Home   Weather   Traun   Past weeks

Flag for Austria Past Weather in Traun, Upper Austria, Austria — Yesterday and Last 2 Weeks

Now
59 °F

Cool.


Feels Like: 59 °F
Forecast: 51 / 76 °F
Wind: 1 mph from North

Location: Linz / Hoersching-Flughafen

Current Time: Oct 1, 2016 at 12:10:13 AM

Latest Report: Sep 30, 2016 at 11:20 PM


Visibility: N/A

Pressure: 30.01 "Hg

Humidity: 82%

Dew Point: 54 °F

Location of TraunLocation

Past Weather in Traun — Graph

°F

Traun Temperature Yesterday

Maximum temperature yesterday: 77 °F (at 5:20 PM)
Minimum temperature yesterday: 48 °F (at 7:20 AM)
Average temperature yesterday: 62 °F

High & Low Weather Summary for the Past Weeks

 TemperatureHumidityPressure
High77 °F (Sep 29, 4:50 PM)100% (Sep 18, 3:20 AM)30.42 "Hg (Sep 18, 3:20 AM)
Low43 °F (Sep 23, 6:20 AM)35% (Sep 24, 4:20 PM)29.80 "Hg (Sep 17, 12:50 AM)
Average58 °F80%30.12 "Hg
* Reported Sep 15 10:20 PM — Sep 30 10:50 PM, Traun, Weather by CustomWeather, © 2016

Note: Actual official high and low records may vary slightly from our data, if they occured in-between our weather recording intervals... More about our weather records

Advertising

Traun Weather History for the Previous 24 Hours

Scroll right to see more
 ConditionsComfort  
Time TempWeatherWind HumidityBarometerVisibility
10:50 PM
Fri, Sep 30
59 °FPassing clouds.2 mph82%30.01 "HgN/A
10:20 PM59 °FPassing clouds.2 mph88%30.01 "HgN/A
9:50 PM61 °FPartly cloudy.1 mph83%30.01 "HgN/A
9:20 PM63 °FPassing clouds.1 mph73%30.01 "HgN/A
8:50 PM63 °FPassing clouds.1 mph73%30.01 "HgN/A
8:20 PM64 °FPassing clouds.No wind68%30.01 "HgN/A
7:50 PM66 °FPassing clouds.2 mph64%30.01 "HgN/A
7:20 PM68 °FClear.2 mph56%29.98 "Hg10 mi
6:50 PM68 °FClear.3 mph56%29.98 "Hg10 mi
6:20 PM72 °FSunny.1 mph47%29.98 "Hg10 mi
5:50 PM75 °FSunny.No wind44%29.98 "Hg10 mi
5:20 PM77 °FSunny.1 mph36%29.98 "Hg10 mi
4:50 PM75 °FSunny.2 mph39%29.98 "Hg10 mi
4:20 PM75 °FSunny.2 mph41%29.98 "Hg10 mi
3:50 PM75 °FPassing clouds.3 mph39%30.01 "HgN/A
3:20 PM75 °FSunny.2 mph39%30.01 "Hg10 mi
2:50 PM75 °FPassing clouds.3 mph39%30.01 "HgN/A
2:20 PM73 °FPassing clouds.3 mph44%30.04 "HgN/A
1:50 PM73 °FSunny.2 mph47%30.04 "Hg10 mi
1:20 PM72 °FSunny.2 mph44%30.07 "Hg10 mi
12:50 PM73 °FSunny.2 mph47%30.07 "Hg10 mi
12:20 PM70 °FPassing clouds.3 mph50%30.07 "HgN/A
11:50 AM68 °FSunny.2 mph56%30.07 "Hg10 mi
11:20 AM64 °FPassing clouds.5 mph64%30.09 "HgN/A
10:50 AM64 °FSunny.3 mph68%30.09 "Hg10 mi
10:20 AM63 °FPassing clouds.3 mph73%30.09 "HgN/A
9:50 AM61 °FSunny.2 mph77%30.09 "Hg10 mi
9:20 AM57 °FSunny.2 mph88%30.09 "Hg10 mi
8:50 AM57 °FSunny.1 mph82%30.09 "Hg10 mi
8:20 AM52 °FPassing clouds.1 mph100%30.09 "Hg6 mi
7:50 AM50 °FLight fog.1 mph100%30.09 "Hg5 mi
7:20 AM48 °FCool.1 mph100%30.09 "Hg5 mi
6:50 AM50 °FFog.1 mph94%30.07 "Hg5 mi
6:20 AM50 °FCool.2 mph100%30.07 "Hg5 mi
5:50 AM50 °FClear.2 mph94%30.07 "Hg10 mi
5:20 AM50 °FClear.1 mph100%30.07 "Hg10 mi
4:50 AM50 °FClear.1 mph100%30.09 "Hg4 mi
4:20 AM52 °FClear.1 mph88%30.09 "Hg10 mi
3:50 AM52 °FClear.1 mph100%30.09 "Hg10 mi
3:20 AM52 °FFog.1 mph94%30.09 "HgN/A
2:50 AM54 °FCool.2 mph94%30.09 "HgN/A
2:20 AM54 °FCool.3 mph94%30.09 "HgN/A
1:50 AM52 °FCool.2 mph94%30.09 "HgN/A
1:20 AM54 °FCool.1 mph94%30.09 "HgN/A
12:50 AM54 °FPassing clouds.1 mph100%30.09 "HgN/A
12:20 AM55 °FCool.2 mph94%30.09 "HgN/A
Weather by CustomWeather, © 2016

See weather overviewHow to use our weather pages